W2SRH Weather Reports


time (UTC)temp
C
wind
direction
speed
KPH
gust
KPH
rain 1hr
cm
rain 24hr
cm
rain mn
cm
humidity
%
barometer
mb
20260503200906 15 317 8.0 22.5 0.00 0.00 0.00 26 1003.4
20260503195905 15 316 11.3 29.0 0.00 0.00 0.00 26 1003.5
20260503194904 15 300 9.7 20.9 0.00 0.00 0.00 27 1003.6
20260503193905 14 304 11.3 27.4 0.00 0.00 0.00 27 1003.7
20260503192904 14 286 11.3 33.8 0.00 0.00 0.00 27 1003.8
20260503192844 13 298 9.7 19.3 0.00 0.00 0.00 28 1004.1
20260503191905 14 310 14.5 29.0 0.00 0.00 0.00 28 1004.0
20260503190904 13 307 12.9 20.9 0.00 0.00 0.00 28 1004.0
20260503185904 13 298 9.7 19.3 0.00 0.00 0.00 28 1004.1
20260503185652 13 291 9.7 20.9 0.00 0.00 0.00 29 1004.2
20260503184905 13 291 9.7 20.9 0.00 0.00 0.00 29 1004.2
20260503183904 13 312 9.7 19.3 0.00 0.00 0.00 28 1004.3
20260503182903 13 301 14.5 30.6 0.00 0.00 0.00 28 1004.3
20260503181904 13 274 8.0 17.7 0.00 0.00 0.00 29 1004.2
20260503180904 12 293 11.3 27.4 0.00 0.00 0.00 30 1004.3
20260503175904 12 283 8.0 22.5 0.00 0.00 0.00 30 1004.6
20260503174904 12 305 9.7 17.7 0.00 0.00 0.00 32 1004.6
20260503173904 12 309 11.3 27.4 0.00 0.00 0.00 31 1004.6
20260503172904 12 305 8.0 20.9 0.00 0.00 0.00 33 1004.6
20260503171904 11 277 11.3 27.4 0.00 0.00 0.00 34 1004.7
20260503170904 12 318 6.4 14.5 0.00 0.00 0.00 33 1004.6
20260503150904 10 320 11.3 22.5 0.00 0.00 0.00 38 1005.2
20260503130903 8 308 6.4 24.1 0.00 0.00 0.00 48 1005.1
20260503080903 6 0 0.0 1.6 0.00 0.00 0.00 57 1002.4
20260503072904 6 20 0.0 3.2 0.00 0.00 0.00 55 1002.2
20260503071904 7 15 0.0 3.2 0.00 0.00 0.00 54 1002.2
20260503071003 7 354 0.0 3.2 0.00 0.00 0.00 53 1002.2
20260503070904 7 354 0.0 3.2 0.00 0.00 0.00 53 1002.2
20260503054904 8 335 0.0 3.2 0.00 0.00 0.00 50 1002.5
20260503053903 8 321 1.6 4.8 0.00 0.00 0.00 49 1002.7
20260503052903 8 316 1.6 8.0 0.00 0.00 0.00 48 1002.8
20260503051904 9 313 1.6 4.8 0.00 0.00 0.00 48 1002.8
20260503050904 9 310 3.2 6.4 0.00 0.00 0.00 47 1002.9
20260503045906 9 333 1.6 4.8 0.00 0.00 0.00 47 1002.9
20260503044905 9 324 1.6 6.4 0.00 0.00 0.00 46 1003.0
20260503043906 10 313 1.6 4.8 0.00 0.00 0.00 46 1003.1
20260503042908 10 294 4.8 9.7 0.00 0.00 0.00 45 1003.2
20260503041904 10 311 3.2 9.7 0.00 0.00 0.00 45 1003.1
20260503040903 10 311 4.8 9.7 0.00 0.00 0.00 44 1003.1
20260503035903 10 302 4.8 12.9 0.00 0.00 0.00 43 1003.2
20260503034903 10 319 3.2 6.4 0.00 0.00 0.00 43 1003.2
20260503033904 10 307 4.8 14.5 0.00 0.00 0.00 43 1003.1
20260503032904 10 309 4.8 9.7 0.00 0.00 0.00 42 1003.1
20260503031903 10 308 3.2 9.7 0.00 0.00 0.00 42 1003.0
20260503030904 10 317 3.2 8.0 0.00 0.00 0.00 42 1003.0
20260503025903 10 309 4.8 9.7 0.00 0.00 0.00 41 1003.1
20260503024903 11 315 3.2 8.0 0.00 0.00 0.00 41 1003.1
20260503023904 11 312 3.2 8.0 0.00 0.00 0.00 40 1003.2
20260503022906 11 308 3.2 9.7 0.00 0.00 0.00 39 1003.2
20260503021903 11 310 4.8 9.7 0.00 0.00 0.00 39 1003.2
20260503020903 11 339 3.2 9.7 0.00 0.00 0.00 39 1003.2
20260503015904 11 321 4.8 8.0 0.00 0.00 0.00 38 1003.1
20260503014904 11 349 3.2 8.0 0.00 0.00 0.00 38 1002.9
20260503013904 11 300 4.8 14.5 0.00 0.00 0.00 37 1003.1
20260503012904 12 337 3.2 9.7 0.00 0.00 0.00 37 1003.0
20260503011904 12 340 3.2 12.9 0.00 0.00 0.00 37 1003.0
20260503010904 12 306 3.2 12.9 0.00 0.00 0.00 36 1003.0
20260503005904 12 300 4.8 9.7 0.00 0.00 0.00 35 1002.8
20260503004903 12 306 6.4 12.9 0.00 0.00 0.00 35 1002.7
20260503003905 12 303 4.8 9.7 0.00 0.00 0.00 35 1002.6
20260503002903 12 312 4.8 9.7 0.00 0.00 0.00 34 1002.4
20260503001904 12 298 6.4 16.1 0.00 0.00 0.00 34 1002.6
20260503000903 12 316 4.8 9.7 0.00 0.00 0.00 35 1002.5
20260502235905 13 320 4.8 9.7 0.00 0.00 0.00 34 1002.3
20260502234904 13 296 4.8 9.7 0.00 0.00 0.00 34 1002.2
20260502233903 13 299 6.4 12.9 0.00 0.00 0.00 34 1002.2
20260502232903 13 309 6.4 12.9 0.00 0.00 0.00 33 1002.1
20260502231904 13 303 6.4 14.5 0.00 0.00 0.00 32 1002.2
20260502230903 15 303 6.4 12.9 0.00 0.00 0.00 31 1002.2
20260502225903 15 334 4.8 12.9 0.00 0.00 0.00 30 1002.2
20260502224904 15 286 6.4 17.7 0.00 0.00 0.00 30 1002.1
20260502223904 15 299 8.0 12.9 0.00 0.00 0.00 30 1002.0
20260502222904 15 313 4.8 12.9 0.00 0.00 0.00 30 1001.9
20260502221904 15 325 6.4 9.7 0.00 0.00 0.00 31 1001.7
20260502220904 15 17 1.6 14.5 0.00 0.00 0.00 31 1001.8
20260502215903 15 353 3.2 9.7 0.00 0.00 0.00 31 1002.0
20260502214903 15 349 1.6 4.8 0.00 0.00 0.00 32 1002.2
20260502213904 15 25 1.6 12.9 0.00 0.00 0.00 33 1002.0
20260502212907 15 65 4.8 9.7 0.00 0.00 0.00 33 1001.8
20260502211904 15 307 6.4 17.7 0.00 0.00 0.00 30 1001.8
20260502210903 15 311 6.4 17.7 0.00 0.00 0.00 30 1001.6
20260502205903 15 329 4.8 16.1 0.00 0.00 0.00 32 1001.6
20260502204905 15 306 6.4 12.9 0.00 0.00 0.00 32 1001.5
20260502203904 15 286 4.8 12.9 0.00 0.00 0.00 32 1001.8
20260502202903 15 305 4.8 14.5 0.00 0.00 0.00 31 1001.8
20260502201904 15 304 9.7 17.7 0.00 0.00 0.00 32 1001.9